Torna al catalogo

USA 281

AttivoMilitareLEO
NORAD 43145·PAYLOAD·🇺🇸 United States

Lanciato Jan 12, 2018 da Vandenberg Space Force Base

Loading…

Prossimi Passaggi (prossime 24 ore)

TLE

ObsoletoSource: Mike McCants

Epoca: Aug 28, 2026, 20:28 UTC

1 43145U 18005A   26240.85326383 0.00000000  00000-0  00000-0 0    06
2 43145 106.0108  99.6514 0008414   8.5776 351.4224 13.48056978    01

Traccia USA 281 in tempo reale con AllMySat

Download on the App Store